CZ-6A DEB, 55222

Orbit data source: Space-Track

CZ-6A DEB, 55222 is space debris in SSO originally from a launch on Fri, 11 Nov 2022 UTC launched from the Taiyaun Space Center, China (TSC). Debris objects in space refer to the collection of defunct objects orbiting the Earth. Examples of debris include non-operational satellites, rocket bodies, and fragments generated from explosions, collisions, or faulty payload assembly.

Loading next visibility...
Identifier
55222, 2022-151WP
Orbit
SSO
Country
Flag of CNCN / PRC
Related business
Manufacturer
SAST
Mission
Spacecraft
Bus & Motor
Unknown
Mass
Unknown
Launch date (UTC)
2022-11-11 (4 years ago)
Launch vehicle
Unknown
Launch site
Taiyaun Space Center, China (TSC)
Object type
Payload
Rocket body
Debris
Shape & HBR
Unknown shape, 0.1 m
Radar Cross Section
Small (<0.1 m²)

Expand to show TLE details & history
Last TLE update: 2 days ago

TLE from 2 days ago
0 CZ-6A DEB
1 55222U 22151WP  26171.16625590  .00008400  00000-0  12972-2 0  9993
2 55222  98.6267 236.9671 0065618 275.5133  83.8591 14.72154173185274
Epoch: 2026-06-20T03:59Z
TLE epoch observation values (Epoch: 2026-06-20T03:59:24.509Z)
Latitude
0.00001°
Longitude
-91.2698°
Altitude
652.55 km
Speed
7.534 km/s
True Right ascension
15h 47m 52s
True Declination
0° 00' 00"
Sunlit
Object was in full shadow at epoch
Visualization orbit readout
Latitude
Unknown
Longitude
Unknown
Altitude
Unknown
Speed
Unknown
Apparent Right ascension
Unknown
Apparent Declination
Unknown
Sunlit
N/A
Visualization observer readout
Local Sidereal Time
21:42:52
Azimuth
Unknown
Elevation
Unknown
Doppler factor
Unknown
Orbital elements
Apogee altitude
697.41 km
Perigee altitude
605.159 km
Semi-major axis
7,029.422 km
Eccentricity
0.00656
Inclination
98.6267°
RAAN
236.9671°
Arg. of periapsis
275.5133°
True anomaly
84.60735°
Mean anomaly
83.8591°
Eccentric anomaly
84.23316°
Mean motion
3.68268 °/min
Orbital period
97.75 mins
BSTAR
0.0012972
Loading maneuver chart data...
Computing Atmospheric mass density...
Loading historical data...
Loading historical data...
Loading historical data...
Loading historical data...
Loading historical data...
Loading historical data...
Loading historical data...

Documentation

Showing up to 5 results
|